Year,Month,Day,Hour,Minute,Value (Times are PST for temperature in C)
2021,04,17,00,01,11.60
2021,04,17,00,02,11.50
2021,04,17,00,03,11.50
2021,04,17,00,04,11.40
2021,04,17,00,05,11.40
2021,04,17,00,07,11.30
2021,04,17,00,08,11.30
2021,04,17,00,09,11.30
2021,04,17,00,10,11.30
2021,04,17,00,11,11.20
2021,04,17,00,12,11.20
2021,04,17,00,13,11.20
2021,04,17,00,14,11.20
2021,04,17,00,15,11.20
2021,04,17,00,16,11.10
2021,04,17,00,17,11.10
2021,04,17,00,18,11.10
2021,04,17,00,19,11.10
2021,04,17,00,20,11.00
2021,04,17,00,21,11.00
2021,04,17,00,22,10.90
2021,04,17,00,23,10.90
2021,04,17,00,24,10.90
2021,04,17,00,25,10.90
2021,04,17,00,26,10.90
2021,04,17,00,27,10.80
2021,04,17,00,28,10.80
2021,04,17,00,29,10.80
2021,04,17,00,30,10.80
2021,04,17,00,31,10.80
2021,04,17,00,32,10.80
2021,04,17,00,33,10.80
2021,04,17,00,34,10.70
2021,04,17,00,35,10.70
2021,04,17,00,36,10.70
2021,04,17,00,37,10.70
2021,04,17,00,38,10.60
2021,04,17,00,39,10.60
2021,04,17,00,40,10.60
2021,04,17,00,41,10.60
2021,04,17,00,42,10.50
2021,04,17,00,43,10.50
2021,04,17,00,44,10.40
2021,04,17,00,45,10.40
2021,04,17,00,46,10.40
2021,04,17,00,47,10.40
2021,04,17,00,48,10.30
2021,04,17,00,49,10.30
2021,04,17,00,50,10.30
2021,04,17,00,51,10.30
2021,04,17,00,52,10.20
2021,04,17,00,53,10.20
2021,04,17,00,54,10.20
2021,04,17,00,55,10.20
2021,04,17,00,56,10.10
2021,04,17,00,57,10.10
2021,04,17,00,58,10.10
2021,04,17,00,59,10.10
2021,04,17,01,00,10.10
2021,04,17,01,01,10.00
2021,04,17,01,02,10.00
2021,04,17,01,03,9.90
2021,04,17,01,04,9.90
2021,04,17,01,05,9.90
2021,04,17,01,06,9.90
2021,04,17,01,07,9.80
2021,04,17,01,08,9.80
2021,04,17,01,09,9.80
2021,04,17,01,10,9.80
2021,04,17,01,11,9.80
2021,04,17,01,12,9.70
2021,04,17,01,13,9.70
2021,04,17,01,14,9.70
2021,04,17,01,15,9.70
2021,04,17,01,16,9.70
2021,04,17,01,17,9.60
2021,04,17,01,18,9.60
2021,04,17,01,19,9.60
2021,04,17,01,20,9.50
2021,04,17,01,21,9.50
2021,04,17,01,22,9.50
2021,04,17,01,23,9.40
2021,04,17,01,24,9.40
2021,04,17,01,25,9.40
2021,04,17,01,26,9.40
2021,04,17,01,27,9.30
2021,04,17,01,28,9.30
2021,04,17,01,29,9.30
2021,04,17,01,30,9.30
2021,04,17,01,31,9.30
2021,04,17,01,32,9.30
2021,04,17,01,33,9.20
2021,04,17,01,34,9.20
2021,04,17,01,35,9.20
2021,04,17,01,36,9.20
2021,04,17,01,37,9.20
2021,04,17,01,38,9.20
2021,04,17,01,39,9.20
2021,04,17,01,40,9.10
2021,04,17,01,41,9.10
2021,04,17,01,42,9.10
2021,04,17,01,43,9.10
2021,04,17,01,44,9.10
2021,04,17,01,45,9.10
2021,04,17,01,46,9.10
2021,04,17,01,47,9.00
2021,04,17,01,48,9.00
2021,04,17,01,49,9.00
2021,04,17,01,50,9.00
2021,04,17,01,51,9.00
2021,04,17,01,52,8.90
2021,04,17,01,53,8.90
2021,04,17,01,54,8.90
2021,04,17,01,55,8.90
2021,04,17,01,56,8.90
2021,04,17,01,57,8.80
2021,04,17,01,58,8.80
2021,04,17,01,59,8.80
2021,04,17,02,00,8.80
2021,04,17,02,01,8.80
2021,04,17,02,02,8.70
2021,04,17,02,03,8.70
2021,04,17,02,04,8.70
2021,04,17,02,05,8.70
2021,04,17,02,06,8.70
2021,04,17,02,07,8.70
2021,04,17,02,08,8.70
2021,04,17,02,09,8.70
2021,04,17,02,10,8.60
2021,04,17,02,11,8.60
2021,04,17,02,12,8.60
2021,04,17,02,13,8.60
2021,04,17,02,14,8.60
2021,04,17,02,15,8.60
2021,04,17,02,16,8.60
2021,04,17,02,17,8.50
2021,04,17,02,18,8.50
2021,04,17,02,19,8.50
2021,04,17,02,20,8.40
2021,04,17,02,21,8.40
2021,04,17,02,22,8.40
2021,04,17,02,23,8.40
2021,04,17,02,24,8.30
2021,04,17,02,25,8.30
2021,04,17,02,26,8.30
2021,04,17,02,27,8.30
2021,04,17,02,28,8.30
2021,04,17,02,29,8.30
2021,04,17,02,30,8.30
2021,04,17,02,31,8.30
2021,04,17,02,32,8.20
2021,04,17,02,33,8.20
2021,04,17,02,34,8.20
2021,04,17,02,35,8.20
2021,04,17,02,36,8.20
2021,04,17,02,37,8.20
2021,04,17,02,38,8.20
2021,04,17,02,39,8.20
2021,04,17,02,40,8.10
2021,04,17,02,41,8.10
2021,04,17,02,42,8.10
2021,04,17,02,43,8.10
2021,04,17,02,44,8.10
2021,04,17,02,45,8.10
2021,04,17,02,46,8.10
2021,04,17,02,47,8.00
2021,04,17,02,48,8.00
2021,04,17,02,50,8.00
2021,04,17,02,51,8.00
2021,04,17,02,52,8.00
2021,04,17,02,53,7.90
2021,04,17,02,54,7.90
2021,04,17,02,55,7.90
2021,04,17,02,56,7.90
2021,04,17,02,57,7.90
2021,04,17,02,58,7.90
2021,04,17,02,59,7.90
2021,04,17,03,00,7.90
2021,04,17,03,01,7.80
2021,04,17,03,02,7.80
2021,04,17,03,04,7.80
2021,04,17,03,06,7.80
2021,04,17,03,07,7.70
2021,04,17,03,08,7.70
2021,04,17,03,09,7.70
2021,04,17,03,10,7.70
2021,04,17,03,11,7.70
2021,04,17,03,12,7.70
2021,04,17,03,13,7.60
2021,04,17,03,14,7.60
2021,04,17,03,15,7.60
2021,04,17,03,16,7.50
2021,04,17,03,18,7.50
2021,04,17,03,19,7.50
2021,04,17,03,20,7.40
2021,04,17,03,21,7.40
2021,04,17,03,22,7.40
2021,04,17,03,23,7.40
2021,04,17,03,24,7.40
2021,04,17,03,25,7.30
2021,04,17,03,26,7.30
2021,04,17,03,27,7.30
2021,04,17,03,28,7.30
2021,04,17,03,29,7.30
2021,04,17,03,32,7.20
2021,04,17,03,33,7.20
2021,04,17,03,34,7.20
2021,04,17,03,35,7.20
2021,04,17,03,36,7.20
2021,04,17,03,37,7.10
2021,04,17,03,38,7.10
2021,04,17,03,39,7.10
2021,04,17,03,40,7.10
2021,04,17,03,41,7.10
2021,04,17,03,42,7.10
2021,04,17,03,43,7.00
2021,04,17,03,45,7.00
2021,04,17,03,46,7.00
2021,04,17,03,47,6.90
2021,04,17,03,48,6.90
2021,04,17,03,49,6.90
2021,04,17,03,50,6.90
2021,04,17,03,51,6.90
2021,04,17,03,52,6.90
2021,04,17,03,53,6.90
2021,04,17,03,54,6.90
2021,04,17,03,55,6.80
2021,04,17,03,56,6.80
2021,04,17,03,57,6.80
2021,04,17,03,59,6.80
2021,04,17,04,01,6.80
2021,04,17,04,02,6.80
2021,04,17,04,03,6.70
2021,04,17,04,04,6.70
2021,04,17,04,05,6.70
2021,04,17,04,06,6.70
2021,04,17,04,07,6.70
2021,04,17,04,08,6.70
2021,04,17,04,09,6.70
2021,04,17,04,10,6.70
2021,04,17,04,12,6.60
2021,04,17,04,13,6.60
2021,04,17,04,14,6.60
2021,04,17,04,15,6.60
2021,04,17,04,16,6.60
2021,04,17,04,17,6.60
2021,04,17,04,18,6.60
2021,04,17,04,19,6.60
2021,04,17,04,20,6.60
2021,04,17,04,21,6.60
2021,04,17,04,22,6.60
2021,04,17,04,23,6.50
2021,04,17,04,24,6.50
2021,04,17,04,25,6.40
2021,04,17,04,27,6.40
2021,04,17,04,28,6.40
2021,04,17,04,29,6.40
2021,04,17,04,30,6.40
2021,04,17,04,31,6.40
2021,04,17,04,32,6.40
2021,04,17,04,33,6.30
2021,04,17,04,34,6.30
2021,04,17,04,35,6.30
2021,04,17,04,36,6.30
2021,04,17,04,37,6.30
2021,04,17,04,38,6.30
2021,04,17,04,39,6.20
2021,04,17,04,40,6.20
2021,04,17,04,42,6.20
2021,04,17,04,43,6.20
2021,04,17,04,44,6.20
2021,04,17,04,45,6.20
2021,04,17,04,47,6.10
2021,04,17,04,48,6.10
2021,04,17,04,49,6.10
2021,04,17,04,50,6.10
2021,04,17,04,51,6.10
2021,04,17,04,52,6.10
2021,04,17,04,53,6.10
2021,04,17,04,54,6.10
2021,04,17,04,55,6.10
2021,04,17,04,56,6.00
2021,04,17,04,57,6.00
2021,04,17,04,58,6.00
2021,04,17,04,59,6.00
2021,04,17,05,00,6.00
2021,04,17,05,02,6.00
2021,04,17,05,04,5.90
2021,04,17,05,05,5.90
2021,04,17,05,06,5.90
2021,04,17,05,07,5.90
2021,04,17,05,08,5.90
2021,04,17,05,09,5.80
2021,04,17,05,11,5.80
2021,04,17,05,12,5.80
2021,04,17,05,13,5.80
2021,04,17,05,14,5.80
2021,04,17,05,15,5.80
2021,04,17,05,16,5.70
2021,04,17,05,17,5.70
2021,04,17,05,18,5.70
2021,04,17,05,20,5.70
2021,04,17,05,21,5.70
2021,04,17,05,22,5.70
2021,04,17,05,23,5.70
2021,04,17,05,25,5.60
2021,04,17,05,26,5.60
2021,04,17,05,27,5.60
2021,04,17,05,29,5.60
2021,04,17,05,30,5.60
2021,04,17,05,31,5.60
2021,04,17,05,32,5.60
2021,04,17,05,33,5.60
2021,04,17,05,35,5.60
2021,04,17,05,36,5.50
2021,04,17,05,37,5.60
2021,04,17,05,38,5.50
2021,04,17,05,39,5.40
2021,04,17,05,40,5.40
2021,04,17,05,42,5.40
2021,04,17,05,43,5.40
2021,04,17,05,44,5.40
2021,04,17,05,45,5.40
2021,04,17,05,47,5.40
2021,04,17,05,48,5.40
2021,04,17,05,49,5.40
2021,04,17,05,50,5.40
2021,04,17,05,51,5.30
2021,04,17,05,53,5.30
2021,04,17,05,54,5.30
2021,04,17,05,55,5.30
2021,04,17,05,56,5.30
2021,04,17,05,57,5.30
2021,04,17,05,58,5.30
2021,04,17,05,59,5.30
2021,04,17,06,01,5.30
2021,04,17,06,02,5.30
2021,04,17,06,04,5.30
2021,04,17,06,05,5.30
2021,04,17,06,06,5.30
2021,04,17,06,07,5.30
2021,04,17,06,08,5.30
2021,04,17,06,09,5.20
2021,04,17,06,11,5.20
2021,04,17,06,12,5.20
2021,04,17,06,13,5.20
2021,04,17,06,15,5.20
2021,04,17,06,16,5.20
2021,04,17,06,17,5.20
2021,04,17,06,19,5.20
2021,04,17,06,20,5.10
2021,04,17,06,21,5.10
2021,04,17,06,22,5.10
2021,04,17,06,24,5.10
2021,04,17,06,25,5.10
2021,04,17,06,26,5.10
2021,04,17,06,27,5.00
2021,04,17,06,28,5.00
2021,04,17,06,29,5.00
2021,04,17,06,30,5.00
2021,04,17,06,32,5.00
2021,04,17,06,33,4.90
2021,04,17,06,34,4.90
2021,04,17,06,35,4.90
2021,04,17,06,36,4.90
2021,04,17,06,37,4.90
2021,04,17,06,38,4.90
2021,04,17,06,39,4.90
2021,04,17,06,40,4.90
2021,04,17,06,42,4.90
2021,04,17,06,43,4.90
2021,04,17,06,44,4.90
2021,04,17,06,45,4.90
2021,04,17,06,46,4.90
2021,04,17,06,47,4.90
2021,04,17,06,48,4.90
2021,04,17,06,49,4.90
2021,04,17,06,50,4.80
2021,04,17,06,51,4.80
2021,04,17,06,52,4.80
2021,04,17,06,53,4.80
2021,04,17,06,54,4.80
2021,04,17,06,55,4.80
2021,04,17,06,57,4.80
2021,04,17,06,58,4.80
2021,04,17,06,59,4.80
2021,04,17,07,00,4.80
2021,04,17,07,01,4.80
2021,04,17,07,03,4.80
2021,04,17,07,04,4.80
2021,04,17,07,05,4.80
2021,04,17,07,06,4.80
2021,04,17,07,07,4.80
2021,04,17,07,08,4.80
2021,04,17,07,09,4.80
2021,04,17,07,12,4.90
2021,04,17,07,13,4.90
2021,04,17,07,14,4.90
2021,04,17,07,15,4.90
2021,04,17,07,16,5.00
2021,04,17,07,17,5.00
2021,04,17,07,19,5.10
2021,04,17,07,20,5.10
2021,04,17,07,21,5.10
2021,04,17,07,22,5.20
2021,04,17,07,23,5.20
2021,04,17,07,24,5.30
2021,04,17,07,25,5.30
2021,04,17,07,27,5.30
2021,04,17,07,28,5.40
2021,04,17,07,29,5.40
2021,04,17,07,30,5.40
2021,04,17,07,31,5.50
2021,04,17,07,32,5.60
2021,04,17,07,33,5.60
2021,04,17,07,34,5.70
2021,04,17,07,35,5.70
2021,04,17,07,36,5.70
2021,04,17,07,38,5.70
2021,04,17,07,39,5.80
2021,04,17,07,40,5.80
2021,04,17,07,41,5.90
2021,04,17,07,42,5.90
2021,04,17,07,43,6.00
2021,04,17,07,45,6.00
2021,04,17,07,46,6.10
2021,04,17,07,47,6.10
2021,04,17,07,48,6.20
2021,04,17,07,49,6.30
2021,04,17,07,50,6.30
2021,04,17,07,51,6.40
2021,04,17,07,53,6.50
2021,04,17,07,54,6.60
2021,04,17,07,55,6.70
2021,04,17,07,56,6.80
2021,04,17,07,57,6.90
2021,04,17,07,58,7.10
2021,04,17,07,59,7.10
2021,04,17,08,01,7.20
2021,04,17,08,02,7.30
2021,04,17,08,03,7.50
2021,04,17,08,04,7.60
2021,04,17,08,05,7.70
2021,04,17,08,06,7.70
2021,04,17,08,07,7.80
2021,04,17,08,09,7.80
2021,04,17,08,10,7.90
2021,04,17,08,11,8.00
2021,04,17,08,12,8.10
2021,04,17,08,13,8.30
2021,04,17,08,14,8.30
2021,04,17,08,15,8.40
2021,04,17,08,17,8.50
2021,04,17,08,18,8.60
2021,04,17,08,19,8.70
2021,04,17,08,20,8.80
2021,04,17,08,21,8.90
2021,04,17,08,22,9.00
2021,04,17,08,23,9.10
2021,04,17,08,24,9.20
2021,04,17,08,25,9.20
2021,04,17,08,27,9.30
2021,04,17,08,28,9.30
2021,04,17,08,29,9.40
2021,04,17,08,30,9.50
2021,04,17,08,31,9.60
2021,04,17,08,33,9.70
2021,04,17,08,34,9.70
2021,04,17,08,35,9.80
2021,04,17,08,36,10.00
2021,04,17,08,37,10.10
2021,04,17,08,38,10.20
2021,04,17,08,39,10.30
2021,04,17,08,40,10.30
2021,04,17,08,41,10.40
2021,04,17,08,42,10.50
2021,04,17,08,44,10.60
2021,04,17,08,45,10.70
2021,04,17,08,46,10.70
2021,04,17,08,48,10.80
2021,04,17,08,49,10.80
2021,04,17,08,50,10.90
2021,04,17,08,51,11.00
2021,04,17,08,53,11.10
2021,04,17,08,54,11.20
2021,04,17,08,55,11.20
2021,04,17,08,56,11.30
2021,04,17,08,57,11.40
2021,04,17,08,58,11.40
2021,04,17,08,59,11.50
2021,04,17,09,01,11.60
2021,04,17,09,02,11.70
2021,04,17,09,03,11.80
2021,04,17,09,04,11.80
2021,04,17,09,06,11.80
2021,04,17,09,07,11.90
2021,04,17,09,08,12.10
2021,04,17,09,09,12.10
2021,04,17,09,10,12.20
2021,04,17,09,12,12.20
2021,04,17,09,13,12.30
2021,04,17,09,14,12.30
2021,04,17,09,15,12.50
2021,04,17,09,16,12.60
2021,04,17,09,17,12.70
2021,04,17,09,18,12.70
2021,04,17,09,19,12.70
2021,04,17,09,21,12.80
2021,04,17,09,23,12.80
2021,04,17,09,24,12.80
2021,04,17,09,25,12.90
2021,04,17,09,26,13.00
2021,04,17,09,27,13.10
2021,04,17,09,28,13.20
2021,04,17,09,29,13.30
2021,04,17,09,30,13.30
2021,04,17,09,31,13.40
2021,04,17,09,33,13.60
2021,04,17,09,34,13.60
2021,04,17,09,35,13.70
2021,04,17,09,36,13.80
2021,04,17,09,37,13.80
2021,04,17,09,38,13.90
2021,04,17,09,39,13.90
2021,04,17,09,40,14.00
2021,04,17,09,41,14.00
2021,04,17,09,42,14.10
2021,04,17,09,43,14.10
2021,04,17,09,44,14.20
2021,04,17,09,45,14.20
2021,04,17,09,46,14.20
2021,04,17,09,47,14.20
2021,04,17,09,48,14.20
2021,04,17,09,49,14.30
2021,04,17,09,50,14.30
2021,04,17,09,51,14.30
2021,04,17,09,52,14.40
2021,04,17,09,53,14.40
2021,04,17,09,54,14.40
2021,04,17,09,55,14.50
2021,04,17,09,56,14.60
2021,04,17,09,57,14.60
2021,04,17,09,58,14.60
2021,04,17,09,59,14.70
2021,04,17,10,00,14.70
2021,04,17,10,01,14.70
2021,04,17,10,02,14.80
2021,04,17,10,03,14.80
2021,04,17,10,04,14.90
2021,04,17,10,05,15.10
2021,04,17,10,06,15.10
2021,04,17,10,07,15.20
2021,04,17,10,08,15.20
2021,04,17,10,09,15.30
2021,04,17,10,10,15.30
2021,04,17,10,11,15.40
2021,04,17,10,12,15.40
2021,04,17,10,13,15.40
2021,04,17,10,14,15.40
2021,04,17,10,15,15.40
2021,04,17,10,16,15.50
2021,04,17,10,17,15.60
2021,04,17,10,18,15.60
2021,04,17,10,19,15.60
2021,04,17,10,20,15.70
2021,04,17,10,21,15.80
2021,04,17,10,22,15.90
2021,04,17,10,23,15.90
2021,04,17,10,24,16.10
2021,04,17,10,25,16.10
2021,04,17,10,26,16.20
2021,04,17,10,27,16.20
2021,04,17,10,28,16.20
2021,04,17,10,29,16.20
2021,04,17,10,30,16.20
2021,04,17,10,31,16.20
2021,04,17,10,32,16.30
2021,04,17,10,33,16.30
2021,04,17,10,34,16.40
2021,04,17,10,35,16.50
2021,04,17,10,36,16.60
2021,04,17,10,37,16.70
2021,04,17,10,38,16.80
2021,04,17,10,39,16.90
2021,04,17,10,40,16.90
2021,04,17,10,41,17.00
2021,04,17,10,42,17.10
2021,04,17,10,43,17.10
2021,04,17,10,44,17.10
2021,04,17,10,45,17.10
2021,04,17,10,46,17.20
2021,04,17,10,47,17.10
2021,04,17,10,48,17.10
2021,04,17,10,49,17.20
2021,04,17,10,50,17.20
2021,04,17,10,51,17.20
2021,04,17,10,52,17.20
2021,04,17,10,53,17.20
2021,04,17,10,54,17.30
2021,04,17,10,55,17.30
2021,04,17,10,56,17.40
2021,04,17,10,57,17.50
2021,04,17,10,58,17.60
2021,04,17,10,59,17.70
2021,04,17,11,00,17.70
2021,04,17,11,01,17.80
2021,04,17,11,02,17.80
2021,04,17,11,03,17.80
2021,04,17,11,04,17.80
2021,04,17,11,05,17.90
2021,04,17,11,06,17.90
2021,04,17,11,07,18.00
2021,04,17,11,08,18.00
2021,04,17,11,09,18.00
2021,04,17,11,10,18.10
2021,04,17,11,11,18.10
2021,04,17,11,12,18.10
2021,04,17,11,13,18.20
2021,04,17,11,14,18.20
2021,04,17,11,15,18.30
2021,04,17,11,16,18.40
2021,04,17,11,17,18.50
2021,04,17,11,18,18.60
2021,04,17,11,19,18.70
2021,04,17,11,20,18.80
2021,04,17,11,21,18.80
2021,04,17,11,22,18.80
2021,04,17,11,23,18.90
2021,04,17,11,24,18.90
2021,04,17,11,25,19.00
2021,04,17,11,26,19.10
2021,04,17,11,27,19.20
2021,04,17,11,28,19.20
2021,04,17,11,29,19.30
2021,04,17,11,30,19.30
2021,04,17,11,31,19.30
2021,04,17,11,32,19.30
2021,04,17,11,33,19.30
2021,04,17,11,34,19.30
2021,04,17,11,35,19.20
2021,04,17,11,36,19.20
2021,04,17,11,37,19.20
2021,04,17,11,38,19.20
2021,04,17,11,39,19.30
2021,04,17,11,40,19.30
2021,04,17,11,41,19.30
2021,04,17,11,42,19.40
2021,04,17,11,43,19.40
2021,04,17,11,44,19.60
2021,04,17,11,45,19.60
2021,04,17,11,46,19.60
2021,04,17,11,47,19.60
2021,04,17,11,48,19.60
2021,04,17,11,49,19.60
2021,04,17,11,50,19.60
2021,04,17,11,51,19.60
2021,04,17,11,52,19.70
2021,04,17,11,53,19.70
2021,04,17,11,54,19.70
2021,04,17,11,55,19.80
2021,04,17,11,56,19.80
2021,04,17,11,57,19.90
2021,04,17,11,58,19.90
2021,04,17,11,59,19.90
2021,04,17,12,00,19.90
2021,04,17,12,01,20.00
2021,04,17,12,02,20.00
2021,04,17,12,03,20.00
2021,04,17,12,04,20.10
2021,04,17,12,05,20.10
2021,04,17,12,06,20.10
2021,04,17,12,07,20.10
2021,04,17,12,08,20.10
2021,04,17,12,09,20.10
2021,04,17,12,10,20.20
2021,04,17,12,11,20.20
2021,04,17,12,12,20.30
2021,04,17,12,13,20.40
2021,04,17,12,14,20.60
2021,04,17,12,15,20.70
2021,04,17,12,16,20.80
2021,04,17,12,17,20.80
2021,04,17,12,18,20.90
2021,04,17,12,19,20.90
2021,04,17,12,20,20.90
2021,04,17,12,21,21.00
2021,04,17,12,22,21.00
2021,04,17,12,23,21.10
2021,04,17,12,24,21.10
2021,04,17,12,25,21.20
2021,04,17,12,26,21.20
2021,04,17,12,27,21.30
2021,04,17,12,28,21.40
2021,04,17,12,29,21.50
2021,04,17,12,30,21.60
2021,04,17,12,31,21.60
2021,04,17,12,32,21.70
2021,04,17,12,33,21.70
2021,04,17,12,34,21.70
2021,04,17,12,35,21.70
2021,04,17,12,36,21.80
2021,04,17,12,37,21.80
2021,04,17,12,38,21.90
2021,04,17,12,39,22.00
2021,04,17,12,40,22.10
2021,04,17,12,41,22.10
2021,04,17,12,42,22.10
2021,04,17,12,43,22.20
2021,04,17,12,44,22.20
2021,04,17,12,45,22.20
2021,04,17,12,46,22.20
2021,04,17,12,47,22.30
2021,04,17,12,48,22.30
2021,04,17,12,49,22.30
2021,04,17,12,50,22.30
2021,04,17,12,51,22.30
2021,04,17,12,52,22.30
2021,04,17,12,53,22.30
2021,04,17,12,54,22.30
2021,04,17,12,55,22.30
2021,04,17,12,56,22.30
2021,04,17,12,57,22.30
2021,04,17,12,58,22.30
2021,04,17,12,59,22.40
2021,04,17,13,00,22.40
2021,04,17,13,01,22.40
2021,04,17,13,02,22.40
2021,04,17,13,03,22.40
2021,04,17,13,04,22.40
2021,04,17,13,05,22.60
2021,04,17,13,06,22.60
2021,04,17,13,07,22.70
2021,04,17,13,08,22.80
2021,04,17,13,09,22.80
2021,04,17,13,10,22.80
2021,04,17,13,11,22.90
2021,04,17,13,12,22.90
2021,04,17,13,13,23.00
2021,04,17,13,14,23.10
2021,04,17,13,15,23.10
2021,04,17,13,16,23.20
2021,04,17,13,17,23.30
2021,04,17,13,18,23.30
2021,04,17,13,19,23.40
2021,04,17,13,20,23.50
2021,04,17,13,21,23.60
2021,04,17,13,22,23.70
2021,04,17,13,23,23.80
2021,04,17,13,24,23.90
2021,04,17,13,25,24.00
2021,04,17,13,26,24.10
2021,04,17,13,27,24.10
2021,04,17,13,28,24.20
2021,04,17,13,29,24.30
2021,04,17,13,30,24.30
2021,04,17,13,31,24.30
2021,04,17,13,32,24.40
2021,04,17,13,33,24.40
2021,04,17,13,34,24.40
2021,04,17,13,35,24.50
2021,04,17,13,36,24.60
2021,04,17,13,37,24.70
2021,04,17,13,38,24.70
2021,04,17,13,39,24.80
2021,04,17,13,40,24.80
2021,04,17,13,41,24.90
2021,04,17,13,42,24.90
2021,04,17,13,43,24.90
2021,04,17,13,44,25.00
2021,04,17,13,45,25.00
2021,04,17,13,46,25.10
2021,04,17,13,47,25.10
2021,04,17,13,48,25.10
2021,04,17,13,49,25.10
2021,04,17,13,50,25.10
2021,04,17,13,51,25.20
2021,04,17,13,52,25.20
2021,04,17,13,53,25.20
2021,04,17,13,54,25.10
2021,04,17,13,55,25.10
2021,04,17,13,56,25.10
2021,04,17,13,57,25.10
2021,04,17,13,58,25.10
2021,04,17,13,59,25.10
2021,04,17,14,00,25.10
2021,04,17,14,01,25.10
2021,04,17,14,02,25.10
2021,04,17,14,03,25.20
2021,04,17,14,04,25.20
2021,04,17,14,05,25.30
2021,04,17,14,06,25.30
2021,04,17,14,07,25.30
2021,04,17,14,08,25.30
2021,04,17,14,09,25.40
2021,04,17,14,10,25.40
2021,04,17,14,11,25.40
2021,04,17,14,12,25.50
2021,04,17,14,13,25.60
2021,04,17,14,14,25.60
2021,04,17,14,15,25.60
2021,04,17,14,16,25.70
2021,04,17,14,17,25.70
2021,04,17,14,18,25.70
2021,04,17,14,19,25.70
2021,04,17,14,20,25.70
2021,04,17,14,21,25.70
2021,04,17,14,22,25.70
2021,04,17,14,23,25.70
2021,04,17,14,24,25.70
2021,04,17,14,25,25.70
2021,04,17,14,26,25.70
2021,04,17,14,27,25.80
2021,04,17,14,28,25.80
2021,04,17,14,29,25.80
2021,04,17,14,30,25.90
2021,04,17,14,31,25.90
2021,04,17,14,32,26.00
2021,04,17,14,33,26.10
2021,04,17,14,34,26.20
2021,04,17,14,35,26.20
2021,04,17,14,36,26.30
2021,04,17,14,37,26.30
2021,04,17,14,38,26.40
2021,04,17,14,39,26.40
2021,04,17,14,40,26.50
2021,04,17,14,41,26.50
2021,04,17,14,42,26.60
2021,04,17,14,43,26.60
2021,04,17,14,44,26.60
2021,04,17,14,45,26.60
2021,04,17,14,46,26.70
2021,04,17,14,47,26.70
2021,04,17,14,48,26.80
2021,04,17,14,49,26.80
2021,04,17,14,50,26.90
2021,04,17,14,51,27.00
2021,04,17,14,52,27.10
2021,04,17,14,53,27.20
2021,04,17,14,54,27.20
2021,04,17,14,55,27.30
2021,04,17,14,56,27.30
2021,04,17,14,57,27.40
2021,04,17,14,58,27.40
2021,04,17,14,59,27.50
2021,04,17,15,00,27.60
2021,04,17,15,01,27.70
2021,04,17,15,02,27.80
2021,04,17,15,03,27.80
2021,04,17,15,04,27.80
2021,04,17,15,05,27.90
2021,04,17,15,06,27.90
2021,04,17,15,07,27.90
2021,04,17,15,08,27.90
2021,04,17,15,09,27.90
2021,04,17,15,10,27.90
2021,04,17,15,11,27.90
2021,04,17,15,12,27.90
2021,04,17,15,13,27.80
2021,04,17,15,14,27.80
2021,04,17,15,15,27.80
2021,04,17,15,16,27.80
2021,04,17,15,17,27.80
2021,04,17,15,18,27.80
2021,04,17,15,19,27.70
2021,04,17,15,20,27.70
2021,04,17,15,21,27.80
2021,04,17,15,22,27.80
2021,04,17,15,23,27.80
2021,04,17,15,24,27.70
2021,04,17,15,25,27.70
2021,04,17,15,26,27.70
2021,04,17,15,27,27.70
2021,04,17,15,28,27.70
2021,04,17,15,29,27.70
2021,04,17,15,30,27.70
2021,04,17,15,31,27.60
2021,04,17,15,32,27.70
2021,04,17,15,33,27.70
2021,04,17,15,34,27.70
2021,04,17,15,35,27.70
2021,04,17,15,36,27.70
2021,04,17,15,37,27.70
2021,04,17,15,38,27.70
2021,04,17,15,39,27.70
2021,04,17,15,40,27.60
2021,04,17,15,41,27.60
2021,04,17,15,42,27.60
2021,04,17,15,43,27.60
2021,04,17,15,44,27.60
2021,04,17,15,45,27.60
2021,04,17,15,46,27.60
2021,04,17,15,47,27.50
2021,04,17,15,48,27.40
2021,04,17,15,49,27.40
2021,04,17,15,50,27.40
2021,04,17,15,51,27.40
2021,04,17,15,52,27.50
2021,04,17,15,53,27.50
2021,04,17,15,54,27.60
2021,04,17,15,55,27.60
2021,04,17,15,56,27.70
2021,04,17,15,57,27.70
2021,04,17,15,58,27.70
2021,04,17,15,59,27.70
2021,04,17,16,00,27.70
2021,04,17,16,01,27.70
2021,04,17,16,02,27.70
2021,04,17,16,03,27.70
2021,04,17,16,04,27.70
2021,04,17,16,05,27.70
2021,04,17,16,06,27.60
2021,04,17,16,07,27.60
2021,04,17,16,08,27.60
2021,04,17,16,09,27.40
2021,04,17,16,10,27.40
2021,04,17,16,11,27.40
2021,04,17,16,12,27.30
2021,04,17,16,13,27.30
2021,04,17,16,14,27.30
2021,04,17,16,15,27.30
2021,04,17,16,16,27.30
2021,04,17,16,17,27.20
2021,04,17,16,18,27.20
2021,04,17,16,19,27.20
2021,04,17,16,20,27.20
2021,04,17,16,21,27.10
2021,04,17,16,22,27.10
2021,04,17,16,23,27.10
2021,04,17,16,24,27.10
2021,04,17,16,25,27.10
2021,04,17,16,26,27.10
2021,04,17,16,27,27.00
2021,04,17,16,28,27.00
2021,04,17,16,29,27.00
2021,04,17,16,30,26.90
2021,04,17,16,31,26.90
2021,04,17,16,32,26.90
2021,04,17,16,33,26.90
2021,04,17,16,34,26.80
2021,04,17,16,35,26.80
2021,04,17,16,36,26.80
2021,04,17,16,37,26.80
2021,04,17,16,38,26.80
2021,04,17,16,39,26.90
2021,04,17,16,40,26.90
2021,04,17,16,41,26.90
2021,04,17,16,42,26.90
2021,04,17,16,43,26.90
2021,04,17,16,44,26.90
2021,04,17,16,45,26.80
2021,04,17,16,46,26.80
2021,04,17,16,47,26.80
2021,04,17,16,48,26.80
2021,04,17,16,49,26.70
2021,04,17,16,50,26.70
2021,04,17,16,51,26.70
2021,04,17,16,52,26.70
2021,04,17,16,53,26.70
2021,04,17,16,54,26.70
2021,04,17,16,55,26.70
2021,04,17,16,56,26.70
2021,04,17,16,57,26.80
2021,04,17,16,58,26.80
2021,04,17,16,59,26.70
2021,04,17,17,00,26.70
2021,04,17,17,01,26.70
2021,04,17,17,02,26.70
2021,04,17,17,03,26.70
2021,04,17,17,04,26.70
2021,04,17,17,05,26.70
2021,04,17,17,06,26.60
2021,04,17,17,07,26.60
2021,04,17,17,08,26.60
2021,04,17,17,09,26.60
2021,04,17,17,10,26.60
2021,04,17,17,11,26.60
2021,04,17,17,12,26.60
2021,04,17,17,13,26.50
2021,04,17,17,14,26.50
2021,04,17,17,15,26.50
2021,04,17,17,16,26.40
2021,04,17,17,17,26.40
2021,04,17,17,18,26.40
2021,04,17,17,19,26.40
2021,04,17,17,20,26.40
2021,04,17,17,21,26.40
2021,04,17,17,22,26.40
2021,04,17,17,23,26.30
2021,04,17,17,24,26.30
2021,04,17,17,25,26.30
2021,04,17,17,26,26.30
2021,04,17,17,27,26.30
2021,04,17,17,28,26.30
2021,04,17,17,29,26.20
2021,04,17,17,30,26.20
2021,04,17,17,31,26.20
2021,04,17,17,32,26.20
2021,04,17,17,33,26.20
2021,04,17,17,34,26.20
2021,04,17,17,35,26.20
2021,04,17,17,36,26.20
2021,04,17,17,37,26.20
2021,04,17,17,38,26.20
2021,04,17,17,39,26.10
2021,04,17,17,40,26.10
2021,04,17,17,41,26.10
2021,04,17,17,42,26.10
2021,04,17,17,43,26.10
2021,04,17,17,44,26.10
2021,04,17,17,45,26.10
2021,04,17,17,46,26.10
2021,04,17,17,47,26.10
2021,04,17,17,48,26.10
2021,04,17,17,49,26.10
2021,04,17,17,50,26.10
2021,04,17,17,52,26.10
2021,04,17,17,53,26.10
2021,04,17,17,54,26.10
2021,04,17,17,55,26.10
2021,04,17,17,56,26.00
2021,04,17,17,57,26.00
2021,04,17,17,58,26.00
2021,04,17,17,59,26.00
2021,04,17,18,00,26.00
2021,04,17,18,01,26.00
2021,04,17,18,02,25.90
2021,04,17,18,03,25.90
2021,04,17,18,04,25.90
2021,04,17,18,05,25.90
2021,04,17,18,06,25.90
2021,04,17,18,07,25.90
2021,04,17,18,08,25.80
2021,04,17,18,09,25.80
2021,04,17,18,10,25.80
2021,04,17,18,11,25.80
2021,04,17,18,12,25.80
2021,04,17,18,13,25.80
2021,04,17,18,14,25.80
2021,04,17,18,15,25.80
2021,04,17,18,17,25.80
2021,04,17,18,18,25.80
2021,04,17,18,19,25.80
2021,04,17,18,20,25.80
2021,04,17,18,22,25.80
2021,04,17,18,23,25.80
2021,04,17,18,24,25.80
2021,04,17,18,25,25.80
2021,04,17,18,26,25.80
2021,04,17,18,27,25.80
2021,04,17,18,28,25.80
2021,04,17,18,29,25.80
2021,04,17,18,30,25.70
2021,04,17,18,32,25.70
2021,04,17,18,33,25.70
2021,04,17,18,34,25.70
2021,04,17,18,35,25.60
2021,04,17,18,36,25.70
2021,04,17,18,37,25.60